When you browse on this site, cookies collect data to enhance your experience and personalize the content and advertising you see.
Visit our Privacy Policy to learn more. By continuing to use the site, you agree to this use of cookies and data.
  • In Hungary
  • List of Countries
  • For 7 days
  • Water Temperature
  • Satellite Maps
  • Weather Map
  • News
  • Weather Widgets
  • user-avatar
    Login

    Hourly Weather Kwilno

    Today, 24 January, Thursday

    Time Temperature Precipitation Wind Pressure Humidity
    00:00 -9°C° 0 mm 4 mps 747 mmHg 67%
    01:00 -9°C° 0 mm 4 mps 747 mmHg 68%
    02:00 -9°C° 0 mm 4 mps 747 mmHg 68%
    03:00 -9°C° 0 mm 4 mps 747 mmHg 68%
    04:00 -9°C° 0 mm 4 mps 747 mmHg 69%
    05:00 -9°C° 0 mm 4 mps 748 mmHg 70%
    06:00 -9°C° 0 mm 4 mps 748 mmHg 70%
    07:00 -9°C° 0 mm 4 mps 748 mmHg 68%
    08:00 -9°C° 0 mm 4 mps 749 mmHg 67%
    09:00 -9°C° 0 mm 4 mps 749 mmHg 66%
    10:00 -8°C° 0 mm 5 mps 749 mmHg 65%
    11:00 -8°C° 0 mm 5 mps 749 mmHg 64%
    12:00 -8°C° 0 mm 5 mps 749 mmHg 62%
    13:00 -7°C° 0 mm 5 mps 749 mmHg 60%
    14:00 -8°C° 0 mm 5 mps 749 mmHg 61%
    15:00 -8°C° 0 mm 5 mps 749 mmHg 61%
    16:00 -8°C° 0 mm 5 mps 749 mmHg 62%
    17:00 -8°C° 0 mm 5 mps 749 mmHg 64%
    18:00 -8°C° 0 mm 5 mps 749 mmHg 66%
    19:00 -8°C° 0 mm 5 mps 749 mmHg 68%
    20:00 -8°C° 0 mm 5 mps 749 mmHg 69%
    21:00 -10°C° 0 mm 5 mps 749 mmHg 70%
    22:00 -10°C° 0 mm 5 mps 750 mmHg 70%
    23:00 -10°C° 0 mm 5 mps 749 mmHg 70%

    Tomorrow, 25 January, Friday

    Time Temperature Precipitation Wind Pressure Humidity
    00:00 -10°C° 0 mm 5 mps 749 mmHg 71%
    01:00 -10°C° 0 mm 5 mps 749 mmHg 71%
    02:00 -9°C° 0.2 mm 4 mps 749 mmHg 75%
    03:00 -9°C° 0.2 mm 4 mps 749 mmHg 79%
    04:00 -9°C° 0.2 mm 4 mps 749 mmHg 83%
    05:00 -9°C° 0.2 mm 4 mps 749 mmHg 83%
    06:00 -9°C° 0.2 mm 4 mps 749 mmHg 83%
    07:00 -8°C° 0.2 mm 3 mps 749 mmHg 83%
    08:00 -8°C° 0.1 mm 3 mps 749 mmHg 82%
    09:00 -8°C° 0.1 mm 3 mps 749 mmHg 81%
    10:00 -7°C° 0.1 mm 3 mps 749 mmHg 79%
    11:00 -6°C° 0.1 mm 2 mps 749 mmHg 78%
    12:00 -4°C° 0.1 mm 1 mps 749 mmHg 76%
    13:00 -3°C° 0.1 mm 1 mps 749 mmHg 74%
    14:00 -3°C° 0 mm 1 mps 748 mmHg 74%
    15:00 -3°C° 0 mm 1 mps 748 mmHg 75%
    16:00 -3°C° 0 mm 1 mps 748 mmHg 75%
    17:00 -5°C° 0 mm 2 mps 749 mmHg 77%
    18:00 -5°C° 0 mm 2 mps 749 mmHg 79%
    19:00 -5°C° 0 mm 2 mps 749 mmHg 80%
    20:00 -7°C° 0 mm 3 mps 749 mmHg 80%
    21:00 -7°C° 0 mm 3 mps 748 mmHg 80%
    22:00 -8°C° 0 mm 4 mps 748 mmHg 80%
    23:00 -7°C° 0 mm 3 mps 748 mmHg 80%

    Day after tomorrow, 26 January, Saturday

    Time Temperature Precipitation Wind Pressure Humidity
    00:00 -7°C° 0 mm 3 mps 747 mmHg 80%
    01:00 -7°C° 0 mm 3 mps 747 mmHg 79%
    02:00 -7°C° 0 mm 3 mps 746 mmHg 79%
    03:00 -7°C° 0 mm 3 mps 745 mmHg 78%
    04:00 -8°C° 0 mm 4 mps 745 mmHg 77%
    05:00 -8°C° 0 mm 4 mps 744 mmHg 79%
    06:00 -7°C° 0 mm 4 mps 743 mmHg 80%
    07:00 -7°C° 0 mm 5 mps 742 mmHg 82%
    08:00 -7°C° 0.3 mm 5 mps 741 mmHg 84%
    09:00 -6°C° 0.3 mm 5 mps 741 mmHg 85%
    10:00 -6°C° 0.3 mm 6 mps 740 mmHg 87%
    11:00 -5°C° 0.4 mm 5 mps 739 mmHg 88%
    12:00 -4°C° 0.4 mm 5 mps 738 mmHg 89%
    13:00 -4°C° 0.4 mm 5 mps 738 mmHg 90%
    14:00 -2°C° 0.1 mm 5 mps 737 mmHg 91%
    15:00 -2°C° 0.1 mm 5 mps 737 mmHg 92%
    16:00 -2°C° 0.1 mm 6 mps 737 mmHg 93%
    17:00 -2°C° 0.1 mm 5 mps 738 mmHg 93%
    18:00 -2°C° 0.1 mm 5 mps 738 mmHg 93%
    19:00 -3°C° 0.1 mm 4 mps 739 mmHg 93%
    20:00 -4°C° 0 mm 3 mps 739 mmHg 94%
    21:00 -5°C° 0 mm 3 mps 739 mmHg 94%
    22:00 -5°C° 0 mm 2 mps 740 mmHg 94%
    23:00 -3°C° 0 mm 1 mps 740 mmHg 95%

    27 January, Sunday

    Time Temperature Precipitation Wind Pressure Humidity
    00:00 -3°C° 0 mm 1 mps 740 mmHg 95%
    01:00 -4°C° 0 mm 1 mps 740 mmHg 95%
    02:00 -4°C° 0 mm 1 mps 740 mmHg 95%
    03:00 -4°C° 0 mm 1 mps 740 mmHg 94%
    04:00 -4°C° 0 mm 1 mps 739 mmHg 94%
    05:00 -6°C° 0 mm 2 mps 739 mmHg 94%
    06:00 -5°C° 0 mm 2 mps 739 mmHg 94%
    07:00 -6°C° 0 mm 3 mps 739 mmHg 93%
    08:00 -5°C° 0.1 mm 4 mps 738 mmHg 93%
    09:00 -5°C° 0.1 mm 4 mps 738 mmHg 93%
    10:00 -4°C° 0.1 mm 4 mps 737 mmHg 92%
    11:00 -3°C° 0.4 mm 4 mps 737 mmHg 93%
    12:00 -3°C° 0.4 mm 4 mps 736 mmHg 93%
    13:00 -2°C° 0.4 mm 4 mps 736 mmHg 94%
    14:00 -2°C° 0.5 mm 4 mps 736 mmHg 95%
    15:00 0°C° 0.5 mm 3 mps 735 mmHg 96%
    16:00 0°C° 0.5 mm 3 mps 735 mmHg 97%
    17:00 0°C° 0.2 mm 3 mps 735 mmHg 96%
    18:00 0°C° 0.2 mm 3 mps 735 mmHg 96%
    19:00 +1°C° 0.2 mm 2 mps 735 mmHg 96%
    20:00 0°C° 0.1 mm 3 mps 735 mmHg 95%
    21:00 0°C° 0.1 mm 3 mps 735 mmHg 95%
    22:00 0°C° 0.1 mm 3 mps 735 mmHg 95%
    23:00 0°C° 0.1 mm 3 mps 734 mmHg 93%

    28 January, Monday

    Time Temperature Precipitation Wind Pressure Humidity
    00:00 0°C° 0.1 mm 3 mps 734 mmHg 92%
    01:00 0°C° 0.1 mm 3 mps 734 mmHg 91%
    02:00 0°C° 0.4 mm 3 mps 734 mmHg 91%
    03:00 0°C° 0.4 mm 3 mps 734 mmHg 91%
    04:00 0°C° 0.4 mm 3 mps 733 mmHg 91%
    05:00 0°C° 0.4 mm 3 mps 733 mmHg 91%
    06:00 0°C° 0.4 mm 3 mps 733 mmHg 92%
    07:00 0°C° 0.4 mm 3 mps 733 mmHg 93%
    08:00 0°C° 0.2 mm 3 mps 733 mmHg 94%
    09:00 0°C° 0.2 mm 3 mps 733 mmHg 95%
    10:00 0°C° 0.2 mm 3 mps 734 mmHg 97%
    11:00 0°C° 0.2 mm 3 mps 734 mmHg 98%
    12:00 +1°C° 0.2 mm 2 mps 733 mmHg 99%
    13:00 +1°C° 0.2 mm 2 mps 733 mmHg 100%
    14:00 +1°C° 0.2 mm 2 mps 733 mmHg 98%
    15:00 +1°C° 0.2 mm 2 mps 733 mmHg 97%
    16:00 +1°C° 0.2 mm 2 mps 733 mmHg 96%
    17:00 +1°C° 0 mm 2 mps 734 mmHg 95%
    18:00 -1°C° 0 mm 2 mps 734 mmHg 94%
    19:00 -1°C° 0 mm 2 mps 734 mmHg 93%
    20:00 -1°C° 0 mm 2 mps 734 mmHg 93%
    21:00 -1°C° 0 mm 2 mps 734 mmHg 93%
    22:00 -1°C° 0 mm 2 mps 734 mmHg 93%
    23:00 -1°C° 0.1 mm 3 mps 734 mmHg 93%

    29 January, Tuesday

    Time Temperature Precipitation Wind Pressure Humidity
    00:00 -1°C° 0.1 mm 3 mps 734 mmHg 93%
    01:00 -1°C° 0.1 mm 4 mps 734 mmHg 93%
    02:00 -1°C° 0 mm 5 mps 735 mmHg 92%
    03:00 -2°C° 0 mm 6 mps 735 mmHg 91%
    04:00 -2°C° 0 mm 7 mps 736 mmHg 91%
    05:00 -4°C° 0.1 mm 8 mps 737 mmHg 89%
    06:00 -4°C° 0.1 mm 9 mps 738 mmHg 86%
    07:00 -5°C° 0.1 mm 10 mps 738 mmHg 84%
    08:00 -5°C° 0 mm 9 mps 739 mmHg 84%
    09:00 -5°C° 0 mm 9 mps 740 mmHg 83%
    10:00 -6°C° 0 mm 9 mps 742 mmHg 82%
    11:00 -6°C° 0 mm 8 mps 742 mmHg 81%
    12:00 -5°C° 0 mm 8 mps 743 mmHg 79%
    13:00 -4°C° 0 mm 7 mps 743 mmHg 78%
    14:00 -5°C° 0 mm 6 mps 744 mmHg 79%
    15:00 -5°C° 0 mm 5 mps 744 mmHg 81%
    16:00 -4°C° 0 mm 4 mps 745 mmHg 82%
    17:00 -4°C° 0 mm 3 mps 745 mmHg 84%
    18:00 -5°C° 0 mm 3 mps 745 mmHg 86%
    19:00 -5°C° 0 mm 3 mps 746 mmHg 88%
    20:00 -5°C° 0 mm 3 mps 746 mmHg 88%
    21:00 -5°C° 0 mm 3 mps 746 mmHg 87%
    22:00 -5°C° 0 mm 4 mps 746 mmHg 86%
    23:00 -5°C° 0 mm 4 mps 746 mmHg 86%
    Show more